Back to catalog

DELTA 2 R/B(2)

PAM-D

AliveHEO
NORAD 28876·ROCKET BODY·🇺🇸 United States

Launched Sep 26, 2005 from Cape Canaveral Space Force Station

Loading…

Next Passes (next 24 hours)

TLE

FreshSource: Space-Track

Epoch: Sep 14, 2026, 12:45 UTC

1 28876U 05038C   26257.53165899  .00020309  00000-0  11594-2 0  9991
2 28876  39.4615 244.0426 5050467  54.8787 342.6995  5.60941884355038

Track DELTA 2 R/B(2) in real time with AllMySat

Download on the App Store